1341273628258,2.62216
1341273688258,2.61347
1341273748258,2.59826
1341273808258,2.56738
1341273868258,2.56619
1341273928258,2.55323
1341273988258,2.55350
1341274048258,2.58873
1341274108258,2.57839
1341274168258,2.55173
1341274228258,2.51709
1341274288258,2.48114
1341274348258,2.50128
1341274408258,2.46071
1341274468258,2.46776
1341274528258,2.43785
1341274588258,2.41493
1341274648258,2.43056
1341274708258,2.40306
1341274768258,2.40573
1341274828258,2.39300
1341274888258,2.39308
1341274948258,2.38443
1341275008258,2.38945
1341275068258,2.34901
1341275128258,2.38530
1341275188258,2.35528
1341275248258,2.35537
1341275308258,2.34110
1341275368258,2.36934
1341275428258,2.34192
1341275488258,2.33109
1341275548258,2.35606
1341275608258,2.32841
1341275668258,2.33536
1341275728258,2.34174
1341275788258,2.34118
1341275848258,2.34425
1341275908258,2.34262
1341275968258,2.35586
1341276028258,2.34689
1341276088258,2.33566
1341276148258,2.33078
1341276208258,2.31754
1341276268258,2.32094
1341276328258,2.33933
1341276388258,2.34208
1341276448258,2.33116
1341276508258,2.31887
1341276568258,2.32486
1341276628258,2.30567
1341276688258,2.30975
1341276748258,2.30560
1341276808258,2.34520
1341276868258,2.33192
1341276928258,2.34610
1341276988258,2.32222
1341277048258,2.31287
1341277108258,2.34415
1341277168258,2.29870
1341277228268,2.31786
1341277288268,2.34645
1341277348268,2.31026
1341277408268,2.33142
1341277468268,2.35144
1341277528268,2.32609
1341277588268,2.34239
1341277648268,2.31259
1341277708268,2.33193
1341277768268,2.32342
1341277828268,2.30424
1341277888268,2.34585
1341277948268,2.33670
1341278008268,2.32668
1341278068268,2.30823
1341278128268,2.31023
1341278188268,2.29926
1341278248268,2.29713
1341278308268,2.29465
1341278368268,2.30589
1341278428268,2.33498
1341278488268,2.34321
1341278548268,2.33490
1341278608268,2.33149
1341278668268,2.33126
1341278728268,2.33946
1341278788268,2.35135
1341278848268,2.35390
1341278908268,2.31527
1341278968268,2.33992
1341279028268,2.31509
1341279088268,2.33962
1341279148268,2.34770
1341279208268,2.26221
1341279268268,2.34709
1341279328268,2.31286
1341279388268,2.35930
1341279448268,2.31839
1341279508268,2.32865
1341279568268,2.34778
1341279628268,2.33262
1341279688268,2.35623
1341279748268,2.32463
1341279808268,2.33816
1341279868268,2.32880
1341279928268,2.34033
1341279988268,2.32015
1341280048268,2.35362
1341280108268,2.33828
1341280168268,2.34641
1341280228268,2.33739
1341280288268,2.35372
1341280348268,2.32824
1341280408268,2.34821
1341280468268,2.33503
1341280528268,2.35123
1341280588268,2.34227
1341280648268,2.35052
1341280708268,2.33411
1341280768268,2.35148
1341280828278,2.33213
1341280888278,2.33774
1341280948278,2.30787
1341281008278,2.31347
1341281068278,2.33206
1341281128278,2.34243
1341281188278,2.32479
1341281248278,2.33243
1341281308278,2.36216
1341281368278,2.32887
1341281428278,2.34343
1341281488278,2.34983
1341281548278,2.34010
1341281608278,2.37219
1341281668278,2.34109
1341281728278,2.34449
1341281788278,2.34168
1341281848278,2.34311
1341281908278,2.33442
1341281968278,2.33292
1341282028278,2.35146
1341282088278,2.33190
1341282148278,2.35311
1341282208278,2.34701
1341282268278,2.33797
1341282328278,2.33358
1341282388278,2.34944
1341282448278,2.35450
1341282508278,2.35312
1341282568278,2.35597
1341282628278,2.33938
1341282688278,2.36719
1341282748278,2.35812
1341282808278,2.35478
1341282868278,2.39061
1341282928278,2.34605
1341282988278,2.36378
1341283048278,2.38197
1341283108278,2.36816
1341283168278,2.35492
1341283228278,2.36589
1341283288278,2.38264
1341283348278,2.38102
1341283408278,2.37374
1341283468278,2.37048
1341283528278,2.38245
1341283588278,2.36830
1341283648278,2.35282
1341283708278,2.37630
1341283768278,2.38616
1341283828278,2.37504
1341283888278,2.37725
1341283948278,2.37793
1341284008278,2.35233
1341284068278,2.37162
1341284128278,2.37798
1341284188278,2.36140
1341284248278,2.37217
1341284308278,2.37070
1341284368278,2.36943
1341284428288,2.36698
1341284488288,2.36488
1341284548288,2.38124
1341284608288,2.37490
1341284668288,2.36745
1341284728288,2.36132
1341284788288,2.39923
1341284848288,2.37842
1341284908288,2.38285
1341284968288,2.36784
1341285028288,2.40984
1341285088288,2.39319
1341285148288,2.39496
1341285208288,2.40623
1341285268288,2.39507
1341285328288,2.40266
1341285388288,2.40640
1341285448288,2.41590
1341285508288,2.40408
1341285568288,2.40764
1341285628288,2.39897
1341285688288,2.38149
1341285748288,2.40306
1341285808288,2.41108
1341285868288,2.41051
1341285928288,2.40369
1341285988288,2.42419
1341286048288,2.42887
1341286108288,2.43413
1341286168288,2.39760
1341286228288,2.42070
1341286288288,2.42766
1341286348288,2.39590
1341286408288,2.41945
1341286468288,2.42742
1341286528288,2.42035
1341286588288,2.39964
1341286648288,2.42525
1341286708288,2.43181
1341286768288,2.48782
1341286828288,2.48315
1341286888288,2.45647
1341286948288,2.45155
1341287008288,2.45137
1341287068288,2.46052
1341287128288,2.48395
1341287188288,2.52972
1341287248288,2.50183
1341287308288,2.53368
1341287368288,2.53008
1341287428288,2.52205
1341287488288,2.59384
1341287548288,2.54225
1341287608288,2.52252
1341287668288,2.48027
1341287728288,2.51010
1341287788288,2.49309
1341287848288,2.47165
1341287908288,2.44399
1341287968288,2.45368
1341288028297,2.44752
1341288088297,2.42755
1341288148297,2.41753
1341288208297,2.42166
1341288268297,2.41434
1341288328297,2.43039
1341288388297,2.40373
1341288448297,2.40813
1341288508297,2.42665
1341288568297,2.40987
1341288628297,2.41705
1341288688297,2.39447
1341288748297,2.42390
1341288808297,2.41258
1341288868297,2.40264
1341288928297,2.39299
1341288988297,2.42364
1341289048297,2.41062
1341289108297,2.39656
1341289168297,2.40267
1341289228297,2.40329
1341289288297,2.38820
1341289348297,2.46413
1341289408297,2.45834
1341289468297,2.38865
1341289528297,2.36327
1341289588297,2.39506
1341289648297,2.39798
1341289708297,2.37657
1341289768297,2.37866
1341289828297,2.38078
1341289888297,2.37717
1341289948297,2.38059
1341290008297,2.40819
1341290068297,2.37065
1341290128297,2.36736
1341290188297,2.37346
1341290248297,2.38630
1341290308297,2.39794
1341290368297,2.38063
1341290428297,2.37125
1341290488297,2.37886
1341290548297,2.36469
1341290608297,2.37290
1341290668297,2.37800
1341290728297,2.37487
1341290788297,2.39241
1341290848297,2.38135
1341290908297,2.36379
1341290968297,2.39568
1341291028297,2.34941
1341291088297,2.37380
1341291148297,2.36939
1341291208297,2.37281
1341291268297,2.38349
1341291328297,2.37278
1341291388297,2.35450
1341291448297,2.36533
1341291508297,2.37290
1341291568297,2.37802
1341291628306,2.37632
1341291688306,2.38568
1341291748306,2.37488
1341291808306,2.40069
1341291868306,2.35836
1341291928306,2.36255
1341291988306,2.37357
1341292048306,2.37600
1341292108306,2.37508
1341292168306,2.36459
1341292228306,2.37728
1341292288306,2.39315
1341292348306,2.37653
1341292408306,2.38074
1341292468306,2.37744
1341292528306,2.34040
1341292588306,2.38768
1341292648306,2.37516
1341292708306,2.39259
1341292768306,2.38613
1341292828306,2.39506
1341292888306,2.36236
1341292948306,2.37870
1341293008306,2.38985
1341293068306,2.36935
1341293128306,2.37049
1341293188306,2.38177
1341293248306,2.38653
1341293308306,2.38139
1341293368306,2.36480
1341293428306,2.37009
1341293488306,2.36523
1341293548306,2.36656
1341293608306,2.35727
1341293668306,2.35014
1341293728306,2.37300
1341293788306,2.36673
1341293848306,2.37788
1341293908306,2.37932
1341293968306,2.34405
1341294028306,2.35922
1341294088306,2.37803
1341294148306,2.37552
1341294208306,2.38373
1341294268306,2.36280
1341294328306,2.33738
1341294388306,2.38937
1341294448306,2.35109
1341294508306,2.37227
1341294568306,2.36935
1341294628306,2.38271
1341294688306,2.35143
1341294748306,2.38732
1341294808306,2.34303
1341294868306,2.34562
1341294928306,2.36030
1341294988306,2.38068
1341295048306,2.36133
1341295108306,2.35753
1341295168306,2.36641
1341295228315,2.38387
1341295288315,2.37230
1341295348315,2.38166
1341295408315,2.37099
1341295468315,2.38827
1341295528315,2.37739
1341295588315,2.37603
1341295648315,2.36524
1341295708315,2.39642
1341295768315,2.40321
1341295828315,2.40933
1341295888315,2.41605
1341295948315,2.39041
1341296008315,2.39704
1341296068315,2.38870
1341296128315,2.37240
1341296188315,2.39804
1341296248315,2.37708
1341296308315,2.37161
1341296368315,2.38243
1341296428315,2.36193
1341296488315,2.39464
1341296548315,2.36751
1341296608315,2.37245
1341296668315,2.36456
1341296728315,2.39901
1341296788315,2.51819
1341296848315,2.37826
1341296908315,2.40601
1341296968315,2.38823
1341297028315,2.40320
1341297088315,2.40187
1341297148315,2.41854
1341297208315,2.39441
1341297268315,2.38216
1341297328315,2.40794
1341297388315,2.38518
1341297448315,2.42329
1341297508315,2.41190
1341297568315,2.41411
1341297628315,2.42787
1341297688315,2.40621
1341297748315,2.40573
1341297808315,2.41101
1341297868315,2.42692
1341297928315,2.40215
1341297988315,2.41039
1341298048315,2.38851
1341298108315,2.41915
1341298168315,2.43145
1341298228315,2.40418
1341298288315,2.41511
1341298348315,2.40976
1341298408315,2.41673
1341298468315,2.40150
1341298528315,2.41812
1341298588315,2.43613
1341298648315,2.43059
1341298708315,2.39490
1341298768315,2.37983
1341298828324,2.41226
1341298888324,2.41310
1341298948324,2.41606
1341299008324,2.39828
1341299068324,2.38814
1341299128324,2.39113
1341299188324,2.38912
1341299248324,2.40594
1341299308324,2.39968
1341299368324,2.42425
1341299428324,2.40081
1341299488324,2.39595
1341299548324,2.41323
1341299608324,2.38409
1341299668324,2.39288
1341299728324,2.39492
1341299788324,2.40295
1341299848324,2.40790
1341299908324,2.38830
1341299968324,2.42115
1341300028324,2.43067
1341300088324,2.39925
1341300148324,2.40106
1341300208324,2.39939
1341300268324,2.42232
1341300328324,2.39658
1341300388324,2.40758
1341300448324,2.42682
1341300508324,2.41082
1341300568324,2.40924
1341300628324,2.39197
1341300688324,2.40692
1341300748324,2.39602
1341300808324,2.42717
1341300868324,2.39272
1341300928324,2.44772
1341300988324,2.43247
1341301048324,2.43663
1341301108324,2.41653
1341301168324,2.45097
1341301228324,2.43454
1341301288324,2.44213
1341301348324,2.43513
1341301408324,2.42269
1341301468324,2.44065
1341301528324,2.46790
1341301588324,2.44437
1341301648324,2.42728
1341301708324,2.45587
1341301768324,2.46004
1341301828324,2.44671
1341301888324,2.44894
1341301948324,2.44726
1341302008324,2.46398
1341302068324,2.43947
1341302128324,2.43078
1341302188324,2.43376
1341302248324,2.46856
1341302308324,2.45325
1341302368324,2.48732
1341302428333,2.44965
1341302488333,2.46512
1341302548333,2.48129
1341302608333,2.46414
1341302668334,2.46066
1341302728334,2.46445
1341302788334,2.47240
1341302848334,2.48813
1341302908334,2.46543
1341302968334,2.51052
1341303028334,2.47489
1341303088334,2.46197
1341303148334,2.46414
1341303208334,2.49448
1341303268334,2.48096
1341303328334,2.46512
1341303388334,2.46617
1341303448334,2.48653
1341303508334,2.48779
1341303568334,2.49096
1341303628334,2.48128
1341303688334,2.49645
1341303748333,2.50221
1341303808333,2.47847
1341303868333,2.47009
1341303928333,2.48921
1341303988334,2.46284
1341304048334,2.47506
1341304108334,2.49338
1341304168334,2.48988
1341304228334,2.48113
1341304288334,2.48684
1341304348334,2.50400
1341304408334,2.49625
1341304468334,2.47388
1341304528334,2.50904
1341304588334,2.51820
1341304648334,2.47582
1341304708334,2.52018
1341304768334,2.47829
1341304828334,2.49509
1341304888334,2.52080
1341304948334,2.51164
1341305008334,2.49246
1341305068334,2.50650
1341305128333,2.47217
1341305188333,2.51767
1341305248333,2.49109
1341305308333,2.51860
1341305368334,2.49733
1341305428334,2.52655
1341305488334,2.50541
1341305548334,2.51656
1341305608334,2.52201
1341305668334,2.53184
1341305728334,2.50559
1341305788334,2.51450
1341305848334,2.52008
1341305908334,2.52216
1341305968334,2.58415
1341306028343,2.53934
1341306088343,2.54541
1341306148343,2.52950
1341306208343,2.57074
1341306268343,2.51680
1341306328343,2.55717
1341306388343,2.55831
1341306448343,2.55280
1341306508343,2.55692
1341306568343,2.54566
1341306628343,2.51975
1341306688343,2.54164
1341306748343,2.52054
1341306808343,2.55095
1341306868343,2.55152
1341306928343,2.55720
1341306988343,2.57518
1341307048343,2.55142
1341307108343,2.54234
1341307168343,2.54161
1341307228343,2.53014
1341307288343,2.54717
1341307348343,2.53342
1341307408343,2.52865
1341307468343,2.53306
1341307528343,2.51864
1341307588343,2.53156
1341307648343,2.50987
1341307708343,2.51344
1341307768343,2.54045
1341307828343,2.54751
1341307888343,2.54792
1341307948343,2.52769
1341308008343,2.51044
1341308068343,2.54045
1341308128343,2.52336
1341308188343,2.52035
1341308248343,2.51083
1341308308343,2.49989
1341308368343,2.49768
1341308428343,2.51840
1341308488343,2.52186
1341308548343,2.48760
1341308608343,2.50702
1341308668343,2.48336
1341308728343,2.51120
1341308788343,2.49154
1341308848343,2.51289
1341308908343,2.48237
1341308968343,2.47113
1341309028343,2.48062
1341309088343,2.48490
1341309148343,2.47442
1341309208343,2.48812
1341309268343,2.49341
1341309328343,2.47232
1341309388343,2.48243
1341309448343,2.46799
1341309508343,2.49621
1341309568343,2.48317
1341309628352,2.46965
1341309688352,2.48316
1341309748352,2.49330
1341309808352,2.47032
1341309868352,2.48611
1341309928352,2.45288
1341309988352,2.47302
1341310048352,2.45874
1341310108352,2.45760
1341310168352,2.48141
1341310228352,2.47766
1341310288352,2.46509
1341310348352,2.46806
1341310408352,2.47813
1341310468352,2.45996
1341310528352,2.47638
1341310588352,2.46892
1341310648352,2.46030
1341310708352,2.46734
1341310768352,2.48243
1341310828352,2.47266
1341310888352,2.45977
1341310948352,2.47123
1341311008352,2.49587
1341311068352,2.46986
1341311128352,2.48667
1341311188352,2.46861
1341311248352,2.48264
1341311308352,2.49720
1341311368352,2.47854
1341311428352,2.50952
1341311488352,2.49008
1341311548352,2.49188
1341311608352,2.49767
1341311668352,2.46605
1341311728352,2.48150
1341311788352,2.47223
1341311848352,2.47878
1341311908352,2.48344
1341311968352,2.50665
1341312028352,2.48952
1341312088352,2.48794
1341312148352,2.47688
1341312208352,2.48341
1341312268352,2.47797
1341312328352,2.48050
1341312388352,2.50133
1341312448352,2.49551
1341312508352,2.54768
1341312568352,2.49881
1341312628352,2.49963
1341312688352,2.51058
1341312748352,2.48846
1341312808352,2.51413
1341312868352,2.50004
1341312928352,2.47525
1341312988352,2.49381
1341313048352,2.49620
1341313108352,2.48452
1341313168352,2.48022
1341313228361,2.47964
1341313288361,2.50322
1341313348361,2.50364
1341313408361,2.50487
1341313468361,2.51460
1341313528361,2.49952
1341313588361,2.47726
1341313648361,2.48637
1341313708361,2.48727
1341313768361,2.50175
1341313828361,2.53080
1341313888361,2.50664
1341313948361,2.50979
1341314008361,2.50494
1341314068361,2.49455
1341314128361,2.49116
1341314188361,2.50116
1341314248361,2.46945
1341314308361,2.50532
1341314368361,2.52593
1341314428361,2.49822
1341314488361,2.51860
1341314548361,2.48825
1341314608361,2.51309
1341314668361,2.53309
1341314728361,2.49248
1341314788361,2.50428
1341314848361,2.50232
1341314908361,2.51901
1341314968361,2.50106
1341315028361,2.51991
1341315088361,2.51334
1341315148361,2.52891
1341315208361,2.52584
1341315268361,2.51126
1341315328361,2.52648
1341315388361,2.54196
1341315448361,2.51810
1341315508361,2.53439
1341315568361,2.52331
1341315628361,2.51544
1341315688361,2.50962
1341315748361,2.54612
1341315808361,2.52719
1341315868361,2.55919
1341315928361,2.55589
1341315988361,2.53061
1341316048361,2.53477
1341316108361,2.53916
1341316168361,2.52067
1341316228361,2.54195
1341316288361,2.55428
1341316348361,2.58034
1341316408361,2.54160
1341316468361,2.56769
1341316528361,2.59071
1341316588361,2.60256
1341316648361,2.55222
1341316708361,2.58361
1341316768361,2.54346
1341316828370,2.58702
1341316888370,2.57413
1341316948370,2.60370
1341317008370,2.58126
1341317068370,2.54310
1341317128370,2.55368
1341317188370,2.60306
1341317248370,2.61783
1341317308370,2.55260
1341317368370,2.56983
1341317428370,2.54786
1341317488370,2.55803
1341317548370,2.55399
1341317608370,2.52980
1341317668370,2.61467
1341317728370,2.61017
1341317788370,2.59351
1341317848370,2.54924
1341317908370,2.53187
1341317968370,2.59565
1341318028370,2.56979
1341318088370,2.55282
1341318148370,2.55335
1341318208370,2.58821
1341318268370,2.51354
1341318328370,2.56535
1341318388370,2.57681
1341318448370,2.59230
1341318508370,2.57489
1341318568370,2.56616
1341318628370,2.54148
1341318688370,2.58355
1341318748370,2.56926
1341318808370,2.57224
1341318868370,2.57387
1341318928370,2.58035
1341318988370,2.55356
1341319048370,2.57495
1341319108370,2.55913
1341319168370,2.54973
1341319228370,2.53337
1341319288370,2.57357
1341319348370,2.54484
1341319408370,2.56574
1341319468370,2.55766
1341319528370,2.56002
1341319588370,2.57658
1341319648370,2.60023
1341319708370,2.58775
1341319768370,2.58868
1341319828370,2.59329
1341319888370,2.58639
1341319948370,2.56533
1341320008370,2.58052
1341320068370,2.57021
1341320128370,2.52870
1341320188370,2.61290
1341320248370,2.60711
1341320308370,2.56441
1341320368370,2.61178
1341320428379,2.57853
1341320488379,2.57355
1341320548379,2.59450
1341320608379,2.57692
1341320668379,2.61896
1341320728379,2.59517
1341320788379,2.61816
1341320848379,2.60224
1341320908379,2.58672
1341320968379,2.65538
1341321028379,2.60086
1341321088379,2.63450
1341321148379,2.61707
1341321208379,2.61430
1341321268379,2.59952
1341321328379,2.61688
1341321388379,2.66821
1341321448379,2.60975
1341321508379,2.60735
1341321568379,2.62604
1341321628379,2.61549
1341321688379,2.59355
1341321748379,2.62482
1341321808379,2.62530
1341321868379,2.63766
1341321928379,2.62017
1341321988379,2.63206
1341322048379,2.60760
1341322108379,2.62506
1341322168379,2.60372
1341322228379,2.62538
1341322288379,2.65660
1341322348379,2.61107
1341322408379,2.62534
1341322468379,2.64570
1341322528379,2.61713
1341322588379,2.54974
1341322648379,2.29877
1341322708379,2.59309
1341322768379,2.60401
1341322828379,2.60068
1341322888379,2.71116
1341322948379,2.67497
1341323008379,2.68351
1341323068379,2.66596
1341323128379,2.61241
1341323188379,2.67470
1341323248379,2.65890
1341323308379,2.65137
1341323368379,2.68525
1341323428379,2.61794
1341323488379,2.72395
1341323548379,2.69369
1341323608379,2.65301
1341323668379,2.67555
1341323728379,2.64859
1341323788379,2.69671
1341323848379,2.67657
1341323908379,2.66226
1341323968379,2.68823
1341324028388,2.65802
1341324088388,2.67783
1341324148388,2.66034
1341324208388,2.67397
1341324268388,2.63687
1341324328388,2.64188
1341324388388,2.66717
1341324448388,2.67028
1341324508388,2.64471
1341324568388,2.67350
1341324628388,2.66843
1341324688388,2.69576
1341324748388,2.66771
1341324808388,2.62731
1341324868388,2.67171
1341324928388,2.61980
1341324988388,2.70946
1341325048388,2.64368
1341325108388,2.67622
1341325168388,2.66808
1341325228388,2.67047
1341325288388,2.67897
1341325348388,2.70261
1341325408388,2.67907
1341325468388,2.55942
1341325528388,2.68705
1341325588388,2.63471
1341325648388,2.67540
1341325708388,2.69469
1341325768388,2.69950
1341325828388,2.72888
1341325888388,2.67571
1341325948388,2.70249
1341326008388,2.69850
1341326068388,2.69398
1341326128388,2.68527
1341326188388,2.69853
1341326248388,2.63124
1341326308388,2.77057
1341326368388,2.70416
1341326428388,2.71864
1341326488388,2.73530
1341326548388,2.73714
1341326608388,2.76416
1341326668388,2.77503
1341326728388,2.76909
1341326788388,2.71978
1341326848388,2.75912
1341326908388,2.72756
1341326968388,2.73829
1341327028388,2.72464
1341327088388,2.73984
1341327148388,2.75643
1341327208388,2.72080
1341327268388,2.71733
1341327328388,2.71033
1341327388388,2.73981
1341327448388,2.73876
1341327508388,2.70334
1341327568388,2.72660
1341327628397,2.70000
1341327688397,2.66305
1341327748397,2.72221
1341327808397,2.70037
1341327868397,2.69826
1341327928397,2.70786
1341327988397,2.68625
1341328048397,2.73589
1341328108397,2.71254
1341328168397,2.66135
1341328228397,2.66180
1341328288397,2.69310
1341328348397,2.67121
1341328408397,2.64623
1341328468397,2.68533
1341328528397,2.64576
1341328588397,2.68403
1341328648397,2.66824
1341328708397,2.66031
1341328768397,2.66030
1341328828397,2.68124
1341328888397,2.66192
1341328948397,2.68383
1341329008397,2.68132
1341329068397,2.67810
1341329128397,2.65641
1341329188397,2.70754
1341329248397,2.66503
1341329308397,2.67515
1341329368397,2.69289
1341329428397,2.68566
1341329488397,2.66732
1341329548397,2.66604
1341329608397,2.67678
1341329668397,2.64298
1341329728397,2.65419
1341329788397,2.67208
1341329848397,2.68646
1341329908397,2.67404
1341329968397,2.66081
1341330028397,2.63738
1341330088397,2.63722
1341330148397,2.62852
1341330208397,2.65213
1341330268397,2.63490
1341330328397,2.66218
1341330388397,2.67387
1341330448397,2.68545
1341330508397,2.69236
1341330568397,2.65307
1341330628397,2.67667
1341330688397,2.68402
1341330748397,2.66348
1341330808397,2.68962
1341330868397,2.65894
1341330928397,2.62055
1341330988397,2.64122
1341331048397,2.65893
1341331108397,2.66267
1341331168397,2.65684
1341331228407,2.65468
1341331288407,2.67459
1341331348407,2.67576
1341331408407,2.66001
1341331468407,2.69326
1341331528407,2.70310
1341331588407,2.65006
1341331648407,2.63719
1341331708407,2.66291
1341331768407,2.67097
1341331828407,2.66213
1341331888407,2.62251
1341331948407,2.63743
1341332488407,2.69611
1341332548407,2.67623
1341332608407,2.70475
1341332668407,2.70043
1341332728407,2.70960
1341332788407,2.70341
1341332848407,2.74349
1341332908407,2.68803
1341332968407,2.68612
1341333028407,2.67933
1341333088407,2.68187
1341333148407,2.67028
1341333208407,2.70133
1341333268407,2.69817
1341333328407,2.67859
1341333388407,2.67947
1341333448407,2.69573
1341333508407,2.69228
1341333568407,2.68648
1341333628407,2.68273
1341333688407,2.68491
1341333748407,2.69899
1341333808407,2.70245
1341333868407,2.69360
1341333928407,2.70565
1341333988407,2.66105
1341334048407,2.68215
1341334108407,2.74269
1341334168407,2.71573
1341334228407,2.71284
1341334288407,2.67386
1341334348407,2.69249
1341334408407,2.68695
1341334468407,2.67939
1341334528407,2.69868
1341334588407,2.71235
1341334648407,2.69465
1341334708407,2.69165
1341334768407,2.68555
1341334828417,2.72307
1341334888417,2.70032
1341334948417,2.70972
1341335008417,2.71018
1341335068417,2.73755
1341335128417,2.75423
1341335188417,2.74819
1341335248417,2.73874
1341335308417,2.73949
1341335368417,2.77039
1341335428417,2.73678
1341335488417,2.75587
1341335548417,2.72524
1341335608417,2.72315
1341335668417,2.71894
1341335728417,2.69108
1341335788417,2.72704
1341335848417,2.65644
1341335908417,2.69544
1341335968417,2.69622
1341336028417,2.68168
1341336088417,2.66183
1341336148417,2.66202
1341336208417,2.68213
1341336268417,2.66356
1341336328417,2.65369
1341336388417,2.65994
1341336448417,2.66247
1341336508417,2.64023
1341336568417,2.65584
1341336628417,2.66383
1341336688417,2.62030
1341336748417,2.64664
1341336808417,2.62671
1341336868417,2.66265
1341336928417,2.67214
1341336988417,2.65398
1341337048417,2.63163
1341337108417,2.66695
1341337168417,2.63264
1341337228417,2.63481
1341337288417,2.65979
1341337348417,2.65596
1341337408417,2.65142
1341337468417,2.63963
1341337528417,2.64406
1341337588417,2.65587
1341337648417,2.63343
1341337708417,2.63645
1341337768417,2.61002
1341337828417,2.62392
1341337888417,2.62563
1341337948417,2.64984
1341338008417,2.62633
1341338068417,2.63744
1341338128417,2.62808
1341338188417,2.63159
1341338248417,2.63608
1341338308417,2.60782
1341338368417,2.63841
1341338428427,2.64084
1341338488427,2.62358
1341338548427,2.60269
1341338608427,2.63411
1341338668427,2.61405
1341338728427,2.61936
1341338788427,2.61002
1341338848427,2.60816
1341338908427,2.59846
1341338968427,2.61056
1341339028427,2.58000
1341339088427,2.61434
1341339148427,2.58003
1341339208427,2.63415
1341339268427,2.60798
1341339328427,2.60938
1341339388427,2.55930
1341339448427,2.59985